Location: Dehesa de la Cepeda
(40.6574°N, 4.3013°W)
Time: 20:53:04
(UTC+00:00)

Vanguard 3 - Pass Details

Date: 04 August 2021
Orbit: 510 x 3260 km, 33.3° (Epoch: 22 September)

Event Time Altitude Azimuth Distance (km) Brightness Sun altitude
Rises 20:50:30 0° 273° (W) 6,157 12.6 -14.1°
Reaches altitude 10° 20:54:10 10° 270° (W) 5,425 12.1 -14.7°
Maximum altitude 21:11:27 61° 196° (SSW) 3,517 10.1 -17.2°
Enters shadow 21:25:35 23° 127° (SE) 5,000 10.5 -19.1°
